Regional Weather Roundup
Issued by NWS

Home | Current Version | Previous Version | Graphics & Text | Print | Product List | Glossary On
Versions: 1 2 3 4 5 6 7 8 9 10 11 12 13 14 15 16 17 18 19 20 21 22 23 24 25 26 27 28 29 30 31 32 33 34 35 36 37 38 39 40 41 42 43 44 45 46 47 48 49 50
689
ASUS44 KJAN 241010
RWRMS

MISSISSIPPI HOURLY WEATHER ROUNDUP
NATIONAL WEATHER SERVICE JACKSON MS
400 AM CST MON NOV 24 2014

NOTE: "FAIR: INDICATES FEW OR NO CLOUDS BELOW 12,000 FEET WITH NO
SIGNIFICANT WEATHER AND/OR OBSTRUCTIONS TO VISIBILITY.

MSZ001>002-007>008-010>013-018>021-025>028-034>036-241100-
NORTHWEST MISSISSIPPI

CITY           SKY/WX    TMP DP  RH WIND       PRES   REMARKS
CLARKSDALE     CLOUDY    57  50  77 SW20G28   29.63R
CLEVELAND      PTSUNNY   56  50  80 W18G25    29.66R
GREENWOOD      CLEAR     60  54  80 SW12      29.66R
GREENVILLE     MOCLDY    56  47  71 W22G31    29.67R
GRENADA        FAIR      59  52  77 SW10G16   29.64R
OLIVE BRANCH   CLOUDY    55  54  94 SW18      29.56R
OXFORD         FAIR      57  48  72 W13G22    29.62R
TUNICA         CLOUDY    55  48  76 SW25      29.61R
$$

MSZ003>006-009-014>017-022>024-029>033-037>039-241100-
NORTHEAST MISSISSIPPI

CITY           SKY/WX    TMP DP  RH WIND       PRES   REMARKS
COLUMBUS AFB   CLEAR     60  58  93 S10       29.64R
CORINTH        PTSUNNY   61  54  77 SW15      29.55R
GOLDN TRIANGLE CLEAR     59  55  88 S12       29.64R
STARKVILLE       N/A     61  57  88 SW7       29.64R
TUPELO         CLEAR     61  54  77 MISG      29.60R
$$

MSZ040-058-241100-
CENTRAL MISSISSIPPI

CITY           SKY/WX    TMP DP  RH WIND       PRES   REMARKS
JACKSON INTL   CLEAR     61  58  90 SW9       29.71R
JACKSON HAWKNS CLEAR     62  57  83 SW12      29.71R
MERIDIAN KEY   PTCLDY    61  59  93 SW10      29.71R
MERIDIAN NAS   CLOUDY    64  60  87 SW6       29.70S
RAYMOND        FAIR      61  55  82 SW8       29.71R
VICKSBURG      CLEAR     57  54  89 W5        29.73R
$$

MSZ059>079-241100-
SOUTH MISSISSIPPI

CITY           SKY/WX    TMP DP  RH WIND       PRES   REMARKS
BROOKHAVEN     FAIR      63  63 100 SW5       29.75R FOG
HATTIESBURG    CLEAR     67  63  87 SW9       29.74R
MCCOMB         CLOUDY    64  62  93 SW7       29.75R
NATCHEZ        CLEAR     61  55  82 SW6       29.76R
PINE BELT      MOCLDY    64  61  88 SW8       29.75R
$$

MSZ080>082-241100-
COASTAL MISSISSIPPI

CITY           SKY/WX    TMP DP  RH WIND       PRES   REMARKS
BILOXI         FOG       65  65 100 SW10      29.76S VSB 1/2
PASCAGOULA     CLOUDY    68  67  96 SW5       29.77R FOG
GULFPORT       FOG       66  65  96 SW5       29.76R VSB 1/2
$$



USA.gov is the U.S. government's official web portal to all federal, state and local government web resources and services.